contact:dominique.lefevre@mio.osupytheas.fr, maurice.libes@osupytheas.fr, didier.mallarino@osupytheas.fr
Project:EMSO http://www.emso-fr.org/EMSO-France
Depth: 2436.0 m
Title:EMSO Ligure Ouest : Data MII capteur CSTAR
DateTime,Latitude,Longitude,Instrument_Serial,Reference_Counts,Signal_Counts,Corrected_Signal_raw_counts,Calculated_Beam_c_inverse_meters,Internal_thermistor_counts
DateTime,Latitude,Longitude,Instrument_Serial,Reference_Counts,Signal_Counts,Corrected_Signal_raw_counts,Calculated_Beam_c_inverse_meters,Internal_thermistor_counts
2021-09-11T00:02:55,42.805,6.029,CST-1368DR,5232,7155,14648,0.256,551
2021-09-11T00:05:56,42.805,6.029,CST-1368DR,5232,7154,14646,0.257,551
2021-09-11T00:08:58,42.805,6.029,CST-1368DR,5232,7153,14645,0.257,551
2021-09-11T00:11:59,42.805,6.029,CST-1368DR,5232,7154,14646,0.257,551
2021-09-11T00:15:01,42.805,6.029,CST-1368DR,5232,7155,14647,0.256,551
2021-09-11T00:18:03,42.805,6.029,CST-1368DR,5232,7154,14645,0.257,551
2021-09-11T00:21:04,42.805,6.029,CST-1368DR,5232,7155,14648,0.256,551
2021-09-11T00:24:06,42.805,6.029,CST-1368DR,5232,7155,14647,0.256,551
2021-09-11T00:27:07,42.805,6.029,CST-1368DR,5232,7154,14645,0.257,551
2021-09-11T00:30:09,42.805,6.029,CST-1368DR,5232,7155,14648,0.256,551
2021-09-11T00:33:11,42.805,6.029,CST-1368DR,5232,7154,14646,0.257,551
2021-09-11T00:36:12,42.805,6.029,CST-1368DR,5232,7155,14647,0.256,551
2021-09-11T00:39:14,42.805,6.029,CST-1368DR,5232,7154,14646,0.257,551
2021-09-11T00:42:15,42.805,6.029,CST-1368DR,5232,7154,14646,0.257,551
2021-09-11T00:45:17,42.805,6.029,CST-1368DR,5232,7154,14646,0.257,551
2021-09-11T00:48:18,42.805,6.029,CST-1368DR,5232,7155,14648,0.256,551
2021-09-11T00:51:20,42.805,6.029,CST-1368DR,5232,7153,14645,0.257,551
2021-09-11T00:54:22,42.805,6.029,CST-1368DR,5232,7155,14649,0.256,551
2021-09-11T00:57:23,42.805,6.029,CST-1368DR,5232,7154,14645,0.257,551
2021-09-11T01:00:25,42.805,6.029,CST-1368DR,5232,7155,14648,0.256,551
2021-09-11T01:03:26,42.805,6.029,CST-1368DR,5232,7155,14648,0.256,551
2021-09-11T01:06:28,42.805,6.029,CST-1368DR,5232,7155,14648,0.256,551
2021-09-11T01:09:30,42.805,6.029,CST-1368DR,5232,7154,14645,0.257,551
2021-09-11T01:12:31,42.805,6.029,CST-1368DR,5232,7155,14647,0.256,551
2021-09-11T01:15:33,42.805,6.029,CST-1368DR,5232,7155,14648,0.256,551
2021-09-11T01:18:34,42.805,6.029,CST-1368DR,5232,7155,14647,0.256,551
2021-09-11T01:21:36,42.805,6.029,CST-1368DR,5232,7154,14646,0.257,550
2021-09-11T01:24:37,42.805,6.029,CST-1368DR,5232,7154,14645,0.257,551
2021-09-11T01:27:39,42.805,6.029,CST-1368DR,5232,7153,14644,0.257,551
2021-09-11T01:30:41,42.805,6.029,CST-1368DR,5232,7154,14646,0.257,551
2021-09-11T01:33:42,42.805,6.029,CST-1368DR,5232,7153,14645,0.257,551
2021-09-11T01:36:44,42.805,6.029,CST-1368DR,5232,7153,14645,0.257,551
2021-09-11T01:39:45,42.805,6.029,CST-1368DR,5232,7154,14646,0.257,551
2021-09-11T01:42:47,42.805,6.029,CST-1368DR,5232,7154,14646,0.257,551
2021-09-11T01:45:48,42.805,6.029,CST-1368DR,5232,7151,14640,0.258,551
2021-09-11T01:48:50,42.805,6.029,CST-1368DR,5232,7154,14646,0.257,551
2021-09-11T01:51:52,42.805,6.029,CST-1368DR,5232,7153,14644,0.257,551
2021-09-11T01:54:53,42.805,6.029,CST-1368DR,5232,7154,14646,0.257,551
2021-09-11T01:57:55,42.805,6.029,CST-1368DR,5232,7153,14644,0.257,551
2021-09-11T02:00:56,42.805,6.029,CST-1368DR,5232,7152,14642,0.258,551
2021-09-11T02:03:58,42.805,6.029,CST-1368DR,5232,7154,14646,0.257,551
2021-09-11T02:07:00,42.805,6.029,CST-1368DR,5232,7154,14646,0.257,551
2021-09-11T02:10:01,42.805,6.029,CST-1368DR,5232,7153,14644,0.257,551
2021-09-11T02:13:03,42.805,6.029,CST-1368DR,5232,7154,14645,0.257,551
2021-09-11T02:16:04,42.805,6.029,CST-1368DR,5232,7153,14644,0.257,551
2021-09-11T02:19:06,42.805,6.029,CST-1368DR,5232,7154,14646,0.257,551
2021-09-11T02:22:07,42.805,6.029,CST-1368DR,5232,7154,14646,0.257,551
2021-09-11T02:25:09,42.805,6.029,CST-1368DR,5232,7154,14646,0.257,551
2021-09-11T02:28:11,42.805,6.029,CST-1368DR,5232,7153,14644,0.257,551
2021-09-11T02:31:12,42.805,6.029,CST-1368DR,5232,7153,14644,0.257,551
2021-09-11T02:34:14,42.805,6.029,CST-1368DR,5232,7153,14644,0.257,551
2021-09-11T02:37:15,42.805,6.029,CST-1368DR,5232,7152,14643,0.257,551
2021-09-11T02:40:17,42.805,6.029,CST-1368DR,5232,7153,14644,0.257,551
2021-09-11T02:43:19,42.805,6.029,CST-1368DR,5232,7152,14643,0.257,551
2021-09-11T02:46:20,42.805,6.029,CST-1368DR,5232,7153,14644,0.257,551
2021-09-11T02:49:22,42.805,6.029,CST-1368DR,5232,7153,14645,0.257,551
2021-09-11T02:52:23,42.805,6.029,CST-1368DR,5232,7153,14643,0.257,551
2021-09-11T02:55:25,42.805,6.029,CST-1368DR,5232,7153,14643,0.257,551
2021-09-11T02:58:26,42.805,6.029,CST-1368DR,5232,7153,14643,0.257,551
2021-09-11T03:01:28,42.805,6.029,CST-1368DR,5232,7153,14645,0.257,550
2021-09-11T03:04:30,42.805,6.029,CST-1368DR,5232,7153,14644,0.257,551
2021-09-11T03:07:31,42.805,6.029,CST-1368DR,5232,7153,14643,0.257,551
2021-09-11T03:10:33,42.805,6.029,CST-1368DR,5232,7153,14644,0.257,551
2021-09-11T03:13:34,42.805,6.029,CST-1368DR,5232,7153,14645,0.257,551
2021-09-11T03:16:36,42.805,6.029,CST-1368DR,5232,7152,14641,0.258,551
2021-09-11T03:19:37,42.805,6.029,CST-1368DR,5232,7153,14643,0.257,551
2021-09-11T03:22:39,42.805,6.029,CST-1368DR,5232,7151,14639,0.258,551
2021-09-11T03:25:41,42.805,6.029,CST-1368DR,5232,7153,14644,0.257,551
2021-09-11T03:28:42,42.805,6.029,CST-1368DR,5232,7152,14641,0.258,551
2021-09-11T03:31:44,42.805,6.029,CST-1368DR,5232,7153,14644,0.257,551
2021-09-11T03:34:45,42.805,6.029,CST-1368DR,5232,7152,14643,0.257,551
2021-09-11T03:37:47,42.805,6.029,CST-1368DR,5232,7153,14644,0.257,551
2021-09-11T03:40:49,42.805,6.029,CST-1368DR,5232,7153,14643,0.257,551
2021-09-11T03:43:50,42.805,6.029,CST-1368DR,5232,7153,14644,0.257,551
2021-09-11T03:46:52,42.805,6.029,CST-1368DR,5232,7153,14644,0.257,551
2021-09-11T03:49:53,42.805,6.029,CST-1368DR,5232,7153,14644,0.257,551
2021-09-11T03:52:55,42.805,6.029,CST-1368DR,5232,7153,14643,0.257,551
2021-09-11T03:55:56,42.805,6.029,CST-1368DR,5232,7152,14642,0.258,551
2021-09-11T03:58:58,42.805,6.029,CST-1368DR,5232,7152,14643,0.257,551
2021-09-11T04:02:00,42.805,6.029,CST-1368DR,5232,7152,14643,0.257,551
2021-09-11T04:05:01,42.805,6.029,CST-1368DR,5232,7152,14641,0.258,551
2021-09-11T04:08:03,42.805,6.029,CST-1368DR,5232,7153,14644,0.257,551
2021-09-11T04:11:04,42.805,6.029,CST-1368DR,5232,7152,14642,0.258,551
2021-09-11T04:14:06,42.805,6.029,CST-1368DR,5232,7152,14643,0.257,551
2021-09-11T04:17:08,42.805,6.029,CST-1368DR,5232,7151,14640,0.258,551
2021-09-11T04:20:09,42.805,6.029,CST-1368DR,5232,7151,14640,0.258,551
2021-09-11T04:23:11,42.805,6.029,CST-1368DR,5232,7152,14642,0.258,551
2021-09-11T04:26:12,42.805,6.029,CST-1368DR,5232,7152,14642,0.258,551
2021-09-11T04:29:14,42.805,6.029,CST-1368DR,5232,7153,14643,0.257,551
2021-09-11T04:32:15,42.805,6.029,CST-1368DR,5232,7153,14643,0.257,551
2021-09-11T04:35:17,42.805,6.029,CST-1368DR,5232,7152,14641,0.258,551
2021-09-11T04:38:19,42.805,6.029,CST-1368DR,5232,7152,14642,0.258,551
2021-09-11T04:41:20,42.805,6.029,CST-1368DR,5232,7151,14640,0.258,551
2021-09-11T04:44:22,42.805,6.029,CST-1368DR,5232,7151,14639,0.258,550
2021-09-11T04:47:23,42.805,6.029,CST-1368DR,5232,7146,14630,0.261,551
2021-09-11T04:50:25,42.805,6.029,CST-1368DR,5232,7152,14641,0.258,551
2021-09-11T04:53:26,42.805,6.029,CST-1368DR,5232,7153,14643,0.257,551
2021-09-11T04:56:28,42.805,6.029,CST-1368DR,5232,7151,14640,0.258,551
2021-09-11T04:59:30,42.805,6.029,CST-1368DR,5232,7152,14641,0.258,551
2021-09-11T05:02:31,42.805,6.029,CST-1368DR,5232,7153,14643,0.257,551
2021-09-11T05:05:33,42.805,6.029,CST-1368DR,5232,7152,14641,0.258,551
2021-09-11T05:08:34,42.805,6.029,CST-1368DR,5232,7152,14641,0.258,551
2021-09-11T05:11:36,42.805,6.029,CST-1368DR,5232,7152,14643,0.257,551
2021-09-11T05:14:38,42.805,6.029,CST-1368DR,5232,7152,14641,0.258,551
2021-09-11T05:17:39,42.805,6.029,CST-1368DR,5232,7152,14642,0.258,551
2021-09-11T05:20:41,42.805,6.029,CST-1368DR,5232,7152,14642,0.258,551
2021-09-11T05:23:42,42.805,6.029,CST-1368DR,5232,7153,14644,0.257,551
2021-09-11T05:26:44,42.805,6.029,CST-1368DR,5232,7152,14642,0.258,551
2021-09-11T05:29:45,42.805,6.029,CST-1368DR,5232,7152,14641,0.258,551
2021-09-11T05:32:47,42.805,6.029,CST-1368DR,5232,7152,14642,0.258,551
2021-09-11T05:35:49,42.805,6.029,CST-1368DR,5232,7151,14640,0.258,551
2021-09-11T05:38:50,42.805,6.029,CST-1368DR,5232,7152,14641,0.258,551
2021-09-11T05:41:52,42.805,6.029,CST-1368DR,5232,7152,14641,0.258,551
2021-09-11T05:44:53,42.805,6.029,CST-1368DR,5232,7152,14641,0.258,551
2021-09-11T05:47:55,42.805,6.029,CST-1368DR,5232,7151,14640,0.258,551
2021-09-11T05:50:57,42.805,6.029,CST-1368DR,5232,7150,14638,0.259,551
2021-09-11T05:53:58,42.805,6.029,CST-1368DR,5232,7150,14637,0.259,551
2021-09-11T05:57:00,42.805,6.029,CST-1368DR,5232,7151,14640,0.258,551
2021-09-11T06:00:01,42.805,6.029,CST-1368DR,5232,7152,14641,0.258,551
2021-09-11T06:03:03,42.805,6.029,CST-1368DR,5232,7152,14641,0.258,551
2021-09-11T06:06:04,42.805,6.029,CST-1368DR,5232,7151,14640,0.258,551
2021-09-11T06:09:06,42.805,6.029,CST-1368DR,5232,7147,14631,0.261,551
2021-09-11T06:12:08,42.805,6.029,CST-1368DR,5232,7150,14638,0.259,551
2021-09-11T06:15:09,42.805,6.029,CST-1368DR,5232,7150,14638,0.259,551
2021-09-11T06:18:11,42.805,6.029,CST-1368DR,5232,7146,14630,0.261,551
2021-09-11T06:21:12,42.805,6.029,CST-1368DR,5232,7150,14638,0.259,551
2021-09-11T06:24:14,42.805,6.029,CST-1368DR,5232,7150,14637,0.259,551
2021-09-11T06:27:15,42.805,6.029,CST-1368DR,5232,7151,14639,0.258,551
2021-09-11T06:30:17,42.805,6.029,CST-1368DR,5232,7152,14641,0.258,551
2021-09-11T06:33:19,42.805,6.029,CST-1368DR,5232,7151,14639,0.258,551
2021-09-11T06:36:20,42.805,6.029,CST-1368DR,5232,7150,14637,0.259,551
2021-09-11T06:39:22,42.805,6.029,CST-1368DR,5232,7151,14639,0.258,551
2021-09-11T06:42:23,42.805,6.029,CST-1368DR,5232,7151,14639,0.258,551
2021-09-11T06:45:25,42.805,6.029,CST-1368DR,5232,7150,14637,0.259,551
2021-09-11T06:48:27,42.805,6.029,CST-1368DR,5232,7149,14636,0.259,551
2021-09-11T06:51:28,42.805,6.029,CST-1368DR,5232,7149,14636,0.259,551
2021-09-11T06:54:30,42.805,6.029,CST-1368DR,5232,7150,14638,0.259,551
2021-09-11T06:57:31,42.805,6.029,CST-1368DR,5231,7151,14642,0.258,551
2021-09-11T07:00:33,42.805,6.029,CST-1368DR,5232,7151,14639,0.258,551
2021-09-11T07:03:34,42.805,6.029,CST-1368DR,5232,7151,14639,0.258,551
2021-09-11T07:06:36,42.805,6.029,CST-1368DR,5232,7152,14641,0.258,551
2021-09-11T07:09:38,42.805,6.029,CST-1368DR,5231,7151,14643,0.257,551
2021-09-11T07:12:39,42.805,6.029,CST-1368DR,5231,7151,14642,0.258,551
2021-09-11T07:15:41,42.805,6.029,CST-1368DR,5231,7151,14642,0.258,551
2021-09-11T07:18:42,42.805,6.029,CST-1368DR,5231,7151,14642,0.258,551
2021-09-11T07:21:44,42.805,6.029,CST-1368DR,5232,7151,14640,0.258,551
2021-09-11T07:24:46,42.805,6.029,CST-1368DR,5231,7151,14642,0.258,551
2021-09-11T07:27:47,42.805,6.029,CST-1368DR,5231,7151,14642,0.258,551
2021-09-11T07:30:49,42.805,6.029,CST-1368DR,5232,7151,14639,0.258,551
2021-09-11T07:33:50,42.805,6.029,CST-1368DR,5231,7150,14641,0.258,551
2021-09-11T07:36:52,42.805,6.029,CST-1368DR,5231,7151,14642,0.258,551
2021-09-11T07:39:53,42.805,6.029,CST-1368DR,5231,7151,14643,0.257,551
2021-09-11T07:42:55,42.805,6.029,CST-1368DR,5232,7151,14639,0.258,551
2021-09-11T07:45:57,42.805,6.029,CST-1368DR,5232,7151,14639,0.258,551
2021-09-11T07:48:58,42.805,6.029,CST-1368DR,5231,7150,14640,0.258,551
2021-09-11T07:52:00,42.805,6.029,CST-1368DR,5232,7150,14638,0.259,551
2021-09-11T07:55:01,42.805,6.029,CST-1368DR,5231,7150,14641,0.258,551
2021-09-11T07:58:03,42.805,6.029,CST-1368DR,5231,7151,14643,0.257,551
2021-09-11T08:01:05,42.805,6.029,CST-1368DR,5232,7152,14641,0.258,551
2021-09-11T08:04:06,42.805,6.029,CST-1368DR,5231,7151,14643,0.257,551
2021-09-11T08:07:08,42.805,6.029,CST-1368DR,5231,7152,14644,0.257,551
2021-09-11T08:10:09,42.805,6.029,CST-1368DR,5231,7151,14642,0.258,551
2021-09-11T08:13:11,42.805,6.029,CST-1368DR,5231,7151,14642,0.258,551
2021-09-11T08:16:12,42.805,6.029,CST-1368DR,5231,7150,14641,0.258,551
2021-09-11T08:19:14,42.805,6.029,CST-1368DR,5231,7151,14643,0.257,551
2021-09-11T08:22:16,42.805,6.029,CST-1368DR,5231,7151,14642,0.258,551
2021-09-11T08:25:17,42.805,6.029,CST-1368DR,5231,7147,14635,0.260,551
2021-09-11T08:28:19,42.805,6.029,CST-1368DR,5231,7149,14637,0.259,551
2021-09-11T08:31:20,42.805,6.029,CST-1368DR,5231,7151,14643,0.257,551
2021-09-11T08:34:22,42.805,6.029,CST-1368DR,5231,7151,14642,0.258,551
2021-09-11T08:37:24,42.805,6.029,CST-1368DR,5231,7151,14642,0.258,551
2021-09-11T08:40:25,42.805,6.029,CST-1368DR,5231,7150,14641,0.258,551
2021-09-11T08:43:27,42.805,6.029,CST-1368DR,5231,7151,14642,0.258,551
2021-09-11T08:46:28,42.805,6.029,CST-1368DR,5231,7150,14641,0.258,551
2021-09-11T08:49:30,42.805,6.029,CST-1368DR,5231,7151,14643,0.257,551
2021-09-11T08:52:31,42.805,6.029,CST-1368DR,5231,7151,14642,0.258,551
2021-09-11T08:55:33,42.805,6.029,CST-1368DR,5231,7148,14636,0.259,551
2021-09-11T08:58:35,42.805,6.029,CST-1368DR,5231,7150,14641,0.258,551
2021-09-11T09:01:36,42.805,6.029,CST-1368DR,5231,7151,14642,0.258,551
2021-09-11T09:04:38,42.805,6.029,CST-1368DR,5231,7150,14641,0.258,551
2021-09-11T09:07:39,42.805,6.029,CST-1368DR,5231,7151,14642,0.258,551
2021-09-11T09:10:41,42.805,6.029,CST-1368DR,5231,7151,14642,0.258,551
2021-09-11T09:13:42,42.805,6.029,CST-1368DR,5231,7150,14640,0.258,551
2021-09-11T09:16:44,42.805,6.029,CST-1368DR,5231,7150,14641,0.258,551
2021-09-11T09:19:46,42.805,6.029,CST-1368DR,5231,7151,14642,0.258,550
2021-09-11T09:22:47,42.805,6.029,CST-1368DR,5231,7151,14642,0.258,551
2021-09-11T09:25:49,42.805,6.029,CST-1368DR,5231,7149,14637,0.259,551
2021-09-11T09:28:50,42.805,6.029,CST-1368DR,5231,7150,14640,0.258,551
2021-09-11T09:31:52,42.805,6.029,CST-1368DR,5231,7146,14631,0.261,551
2021-09-11T09:34:54,42.805,6.029,CST-1368DR,5231,7150,14641,0.258,551
2021-09-11T09:37:55,42.805,6.029,CST-1368DR,5231,7151,14642,0.258,551
2021-09-11T09:40:57,42.805,6.029,CST-1368DR,5231,7151,14642,0.258,551
2021-09-11T09:43:58,42.805,6.029,CST-1368DR,5231,7151,14642,0.258,551
2021-09-11T09:47:00,42.805,6.029,CST-1368DR,5231,7150,14641,0.258,551
2021-09-11T09:50:01,42.805,6.029,CST-1368DR,5231,7149,14639,0.258,551
2021-09-11T09:53:03,42.805,6.029,CST-1368DR,5231,7150,14641,0.258,551
2021-09-11T09:56:05,42.805,6.029,CST-1368DR,5231,7151,14642,0.258,551
2021-09-11T09:59:06,42.805,6.029,CST-1368DR,5231,7151,14642,0.258,551
2021-09-11T10:02:08,42.805,6.029,CST-1368DR,5231,7150,14640,0.258,551
2021-09-11T10:05:09,42.805,6.029,CST-1368DR,5231,7150,14641,0.258,551
2021-09-11T10:08:11,42.805,6.029,CST-1368DR,5231,7150,14641,0.258,551
2021-09-11T10:11:12,42.805,6.029,CST-1368DR,5231,7150,14640,0.258,551
2021-09-11T10:14:14,42.805,6.029,CST-1368DR,5231,7150,14640,0.258,551
2021-09-11T10:17:16,42.805,6.029,CST-1368DR,5231,7149,14639,0.258,551
2021-09-11T10:20:17,42.805,6.029,CST-1368DR,5231,7150,14641,0.258,551
2021-09-11T10:23:19,42.805,6.029,CST-1368DR,5231,7149,14638,0.259,551
2021-09-11T10:26:20,42.805,6.029,CST-1368DR,5231,7150,14640,0.258,551
2021-09-11T10:29:22,42.805,6.029,CST-1368DR,5231,7148,14637,0.259,551
2021-09-11T10:32:24,42.805,6.029,CST-1368DR,5231,7149,14639,0.258,551
2021-09-11T10:35:25,42.805,6.029,CST-1368DR,5231,7150,14640,0.258,551
2021-09-11T10:38:27,42.805,6.029,CST-1368DR,5231,7150,14640,0.258,550
2021-09-11T10:41:28,42.805,6.029,CST-1368DR,5231,7148,14637,0.259,551
2021-09-11T10:44:30,42.805,6.029,CST-1368DR,5231,7149,14639,0.258,551
2021-09-11T10:47:31,42.805,6.029,CST-1368DR,5231,7150,14640,0.258,551
2021-09-11T10:50:33,42.805,6.029,CST-1368DR,5231,7148,14636,0.259,551
2021-09-11T10:53:35,42.805,6.029,CST-1368DR,5231,7147,14634,0.260,551
2021-09-11T10:56:36,42.805,6.029,CST-1368DR,5231,7146,14631,0.261,551
2021-09-11T10:59:38,42.805,6.029,CST-1368DR,5231,7148,14637,0.259,551
2021-09-11T11:02:39,42.805,6.029,CST-1368DR,5231,7150,14640,0.258,551
2021-09-11T11:05:41,42.805,6.029,CST-1368DR,5231,7149,14639,0.258,551
2021-09-11T11:08:43,42.805,6.029,CST-1368DR,5231,7148,14637,0.259,551
2021-09-11T11:11:44,42.805,6.029,CST-1368DR,5231,7148,14637,0.259,551
2021-09-11T11:14:46,42.805,6.029,CST-1368DR,5231,7149,14639,0.258,551
2021-09-11T11:17:47,42.805,6.029,CST-1368DR,5231,7149,14639,0.258,551
2021-09-11T11:20:49,42.805,6.029,CST-1368DR,5231,7149,14639,0.258,551
2021-09-11T11:23:50,42.805,6.029,CST-1368DR,5231,7149,14639,0.258,551
2021-09-11T11:26:52,42.805,6.029,CST-1368DR,5231,7149,14639,0.258,551
2021-09-11T11:29:54,42.805,6.029,CST-1368DR,5231,7150,14640,0.258,551
2021-09-11T11:32:55,42.805,6.029,CST-1368DR,5231,7149,14638,0.259,551
2021-09-11T11:35:57,42.805,6.029,CST-1368DR,5231,7149,14637,0.259,551
2021-09-11T11:38:58,42.805,6.029,CST-1368DR,5231,7148,14636,0.259,551
2021-09-11T11:42:00,42.805,6.029,CST-1368DR,5231,7149,14639,0.258,551
2021-09-11T11:45:01,42.805,6.029,CST-1368DR,5231,7149,14638,0.259,551
2021-09-11T11:48:03,42.805,6.029,CST-1368DR,5231,7149,14639,0.258,551
2021-09-11T11:51:05,42.805,6.029,CST-1368DR,5231,7149,14638,0.259,551
2021-09-11T11:54:06,42.805,6.029,CST-1368DR,5231,7149,14637,0.259,551
2021-09-11T11:57:08,42.805,6.029,CST-1368DR,5231,7149,14638,0.259,551
2021-09-11T12:00:09,42.805,6.029,CST-1368DR,5231,7149,14639,0.258,551
2021-09-11T12:03:11,42.805,6.029,CST-1368DR,5231,7149,14637,0.259,551
2021-09-11T12:06:13,42.805,6.029,CST-1368DR,5231,7149,14639,0.258,551
2021-09-11T12:09:14,42.805,6.029,CST-1368DR,5231,7149,14638,0.259,551
2021-09-11T12:12:16,42.805,6.029,CST-1368DR,5231,7149,14639,0.258,551
2021-09-11T12:15:17,42.805,6.029,CST-1368DR,5231,7150,14641,0.258,551
2021-09-11T12:18:19,42.805,6.029,CST-1368DR,5231,7150,14640,0.258,551
2021-09-11T12:21:20,42.805,6.029,CST-1368DR,5231,7147,14633,0.260,551
2021-09-11T12:24:22,42.805,6.029,CST-1368DR,5231,7150,14640,0.258,551
2021-09-11T12:27:24,42.805,6.029,CST-1368DR,5231,7149,14638,0.259,551
2021-09-11T12:30:25,42.805,6.029,CST-1368DR,5231,7149,14637,0.259,551
2021-09-11T12:33:27,42.805,6.029,CST-1368DR,5231,7150,14640,0.258,551
2021-09-11T12:36:28,42.805,6.029,CST-1368DR,5231,7147,14635,0.260,551
2021-09-11T12:39:30,42.805,6.029,CST-1368DR,5231,7147,14635,0.260,551
2021-09-11T12:42:32,42.805,6.029,CST-1368DR,5231,7148,14636,0.259,551
2021-09-11T12:45:33,42.805,6.029,CST-1368DR,5231,7149,14638,0.259,551
2021-09-11T12:48:35,42.805,6.029,CST-1368DR,5231,7149,14637,0.259,551
2021-09-11T12:51:36,42.805,6.029,CST-1368DR,5231,7148,14637,0.259,551
2021-09-11T12:54:38,42.805,6.029,CST-1368DR,5231,7147,14633,0.260,551
2021-09-11T12:57:39,42.805,6.029,CST-1368DR,5231,7147,14634,0.260,551
2021-09-11T13:00:41,42.805,6.029,CST-1368DR,5231,7148,14636,0.259,551
2021-09-11T13:03:43,42.805,6.029,CST-1368DR,5231,7148,14637,0.259,551
2021-09-11T13:06:44,42.805,6.029,CST-1368DR,5231,7147,14634,0.260,551
2021-09-11T13:09:46,42.805,6.029,CST-1368DR,5231,7146,14633,0.260,550
2021-09-11T13:12:47,42.805,6.029,CST-1368DR,5231,7147,14634,0.260,551
2021-09-11T13:15:49,42.805,6.029,CST-1368DR,5231,7147,14635,0.260,551
2021-09-11T13:18:50,42.805,6.029,CST-1368DR,5231,7148,14636,0.259,551
2021-09-11T13:21:52,42.805,6.029,CST-1368DR,5231,7147,14635,0.260,551
2021-09-11T13:24:54,42.805,6.029,CST-1368DR,5231,7148,14636,0.259,551
2021-09-11T13:27:55,42.805,6.029,CST-1368DR,5231,7147,14634,0.260,551
2021-09-11T13:30:57,42.805,6.029,CST-1368DR,5231,7149,14637,0.259,551
2021-09-11T13:33:58,42.805,6.029,CST-1368DR,5231,7148,14637,0.259,551
2021-09-11T13:37:00,42.805,6.029,CST-1368DR,5231,7148,14636,0.259,551
2021-09-11T13:40:02,42.805,6.029,CST-1368DR,5231,7148,14637,0.259,551
2021-09-11T13:43:03,42.805,6.029,CST-1368DR,5231,7148,14636,0.259,551
2021-09-11T13:46:05,42.805,6.029,CST-1368DR,5231,7149,14637,0.259,551
2021-09-11T13:49:06,42.805,6.029,CST-1368DR,5231,7148,14636,0.259,551
2021-09-11T13:52:08,42.805,6.029,CST-1368DR,5231,7148,14636,0.259,551
2021-09-11T13:55:09,42.805,6.029,CST-1368DR,5230,7148,14640,0.258,551
2021-09-11T13:58:11,42.805,6.029,CST-1368DR,5230,7147,14638,0.259,551
2021-09-11T14:01:13,42.805,6.029,CST-1368DR,5231,7149,14638,0.259,551
2021-09-11T14:04:14,42.805,6.029,CST-1368DR,5230,7148,14639,0.258,551
2021-09-11T14:07:16,42.805,6.029,CST-1368DR,5231,7148,14637,0.259,551
2021-09-11T14:10:17,42.805,6.029,CST-1368DR,5231,7147,14635,0.260,551
2021-09-11T14:13:19,42.805,6.029,CST-1368DR,5231,7147,14635,0.260,551
2021-09-11T14:16:20,42.805,6.029,CST-1368DR,5230,7147,14638,0.259,551
2021-09-11T14:19:22,42.805,6.029,CST-1368DR,5231,7148,14636,0.259,551
2021-09-11T14:22:24,42.805,6.029,CST-1368DR,5231,7147,14634,0.260,550
2021-09-11T14:25:25,42.805,6.029,CST-1368DR,5231,7148,14636,0.259,551
2021-09-11T14:28:27,42.805,6.029,CST-1368DR,5231,7148,14636,0.259,551
2021-09-11T14:31:28,42.805,6.029,CST-1368DR,5231,7148,14636,0.259,551
2021-09-11T14:34:30,42.805,6.029,CST-1368DR,5230,7147,14636,0.259,550
2021-09-11T14:37:32,42.805,6.029,CST-1368DR,5230,7149,14640,0.258,551
2021-09-11T14:40:33,42.805,6.029,CST-1368DR,5230,7147,14637,0.259,551
2021-09-11T14:43:35,42.805,6.029,CST-1368DR,5230,7148,14639,0.258,551
2021-09-11T14:46:36,42.805,6.029,CST-1368DR,5231,7148,14636,0.259,551
2021-09-11T14:49:38,42.805,6.029,CST-1368DR,5230,7148,14639,0.258,551
2021-09-11T14:52:39,42.805,6.029,CST-1368DR,5230,7145,14633,0.260,551
2021-09-11T14:55:41,42.805,6.029,CST-1368DR,5230,7148,14640,0.258,551
2021-09-11T14:58:43,42.805,6.029,CST-1368DR,5230,7147,14637,0.259,551
2021-09-11T15:01:44,42.805,6.029,CST-1368DR,5230,7147,14637,0.259,551
2021-09-11T15:04:46,42.805,6.029,CST-1368DR,5231,7147,14635,0.260,551
2021-09-11T15:07:47,42.805,6.029,CST-1368DR,5230,7147,14637,0.259,551
2021-09-11T15:10:49,42.805,6.029,CST-1368DR,5230,7147,14637,0.259,551
2021-09-11T15:13:51,42.805,6.029,CST-1368DR,5230,7146,14636,0.259,551
2021-09-11T15:16:52,42.805,6.029,CST-1368DR,5231,7147,14633,0.260,551
2021-09-11T15:19:54,42.805,6.029,CST-1368DR,5231,7147,14635,0.260,551
2021-09-11T15:22:55,42.805,6.029,CST-1368DR,5230,7147,14638,0.259,551
2021-09-11T15:25:57,42.805,6.029,CST-1368DR,5231,7147,14634,0.260,551
2021-09-11T15:28:58,42.805,6.029,CST-1368DR,5230,7147,14637,0.259,551
2021-09-11T15:32:00,42.805,6.029,CST-1368DR,5230,7147,14637,0.259,551
2021-09-11T15:35:02,42.805,6.029,CST-1368DR,5230,7143,14629,0.261,551
2021-09-11T15:38:03,42.805,6.029,CST-1368DR,5230,7147,14638,0.259,551
2021-09-11T15:41:05,42.805,6.029,CST-1368DR,5230,7147,14637,0.259,551
2021-09-11T15:44:06,42.805,6.029,CST-1368DR,5230,7147,14638,0.259,551
2021-09-11T15:47:08,42.805,6.029,CST-1368DR,5230,7147,14637,0.259,551
2021-09-11T15:50:09,42.805,6.029,CST-1368DR,5230,7149,14640,0.258,551
2021-09-11T15:53:11,42.805,6.029,CST-1368DR,5230,7147,14637,0.259,551
2021-09-11T15:56:13,42.805,6.029,CST-1368DR,5230,7147,14638,0.259,551
2021-09-11T15:59:14,42.805,6.029,CST-1368DR,5230,7147,14638,0.259,551
2021-09-11T16:02:16,42.805,6.029,CST-1368DR,5230,7145,14633,0.260,551
2021-09-11T16:05:17,42.805,6.029,CST-1368DR,5230,7147,14637,0.259,551
2021-09-11T16:08:19,42.805,6.029,CST-1368DR,5230,7148,14639,0.258,551
2021-09-11T16:11:21,42.805,6.029,CST-1368DR,5230,7147,14637,0.259,551
2021-09-11T16:14:22,42.805,6.029,CST-1368DR,5230,7147,14637,0.259,551
2021-09-11T16:17:24,42.805,6.029,CST-1368DR,5230,7147,14638,0.259,551
2021-09-11T16:20:25,42.805,6.029,CST-1368DR,5230,7147,14637,0.259,551
2021-09-11T16:23:27,42.805,6.029,CST-1368DR,5230,7147,14637,0.259,551
2021-09-11T16:26:28,42.805,6.029,CST-1368DR,5230,7146,14636,0.259,551
2021-09-11T16:29:30,42.805,6.029,CST-1368DR,5230,7146,14635,0.260,551
2021-09-11T16:32:32,42.805,6.029,CST-1368DR,5230,7146,14634,0.260,551
2021-09-11T16:35:33,42.805,6.029,CST-1368DR,5230,7148,14639,0.258,551
2021-09-11T16:38:35,42.805,6.029,CST-1368DR,5230,7145,14633,0.260,551
2021-09-11T16:41:36,42.805,6.029,CST-1368DR,5230,7146,14635,0.260,551
2021-09-11T16:44:38,42.805,6.029,CST-1368DR,5230,7147,14637,0.259,551
2021-09-11T16:47:39,42.805,6.029,CST-1368DR,5230,7147,14637,0.259,551
2021-09-11T16:50:41,42.805,6.029,CST-1368DR,5230,7147,14638,0.259,551
2021-09-11T16:53:43,42.805,6.029,CST-1368DR,5230,7147,14637,0.259,551